Location: Bosdarros
(43.2167°N, 0.3667°W)
Time: 11:15:21
(UTC+00:00)

FENGYUN 1C DEB - Pass Details

Date: 01 November 2021
Orbit: 805 x 871 km, 98.8° (Epoch: 26 November)

Event Time Altitude Azimuth Distance (km) Brightness Sun altitude
Exits shadow 20:24:29 26° 284° (WNW) 1,570 ? -38.7°
Drops below altitude 10° 20:27:59 10° 323° (NW) 2,418 ? -39.3°
Sets 20:30:42 0° 335° (NNW) 3,365 ? -39.8°
